Terminal Aerodrome Forecast
Issued by NWS Tulsa, OK

Home | Current Version | Previous Version | Text Only | Print | Product List | Glossary On
Versions: 1 2 3 4 5 6 7 8 9 10 11 12 13 14 15 16 17 18 19 20 21 22 23
000
FTUS44 KTSA 210500
TAFFSM
TAF
KFSM 210520Z 2106/2206 VRB05KT P6SM SKC
     FM211200 VRB05KT P6SM BKN150
     FM211400 23007KT P6SM BKN100 PROB30 2115/2121 -SHRA BKN070=

USA.gov is the U.S. government's official web portal to all federal, state and local government web resources and services.